Regional Weather Roundup
Issued by NWS Kansas City/Pleasant Hill, MO

Home | Current Version | Previous Version | Graphics & Text | Print | Product List | Glossary Off
Versions: 1 2 3 4 5 6 7 8 9 10 11 12 13 14 15 16 17 18 19 20 21 22 23 24 25 26 27 28 29 30 31 32 33 34 35 36 37 38 39 40 41 42 43 44 45 46 47 48 49 50

811
ASUS43 KEAX 070110
RWREAX

WEATHER ROUNDUP FOR EASTERN KANSAS AND NORTHWEST MISSOURI
NATIONAL WEATHER SERVICE KANSAS CITY/PLEASANT HILL MO
700 PM CST SAT FEB 06 2016

KSZ040-057-103>105-MOZ028-029-037-043-070200-
...KANSAS CITY METROPOLITAN AREA...

CITY           SKY/WX    TMP DP  RH WIND       PRES   REMARKS
K.C. INTL      CLOUDY    40  30  67 S10       30.15F WCI  33
K.C. DOWNTOWN  CLEAR     42  28  57 SW8       30.16F
LEES SUMMIT    CLEAR     41  29  62 SW8       30.18S
OLATHE - IXD   CLEAR     37  27  67 S8        30.18F WCI  31
OLATHE - OJC   CLEAR     40  27  59 S5        30.18F
LAWRENCE       CLEAR     39  27  62 S7        30.17F WCI  34

$$

MOZ001>008-011>017-020>025-030>033-038>040-044>046-053-054-070200-
...NORTHERN AND CENTRAL MISSOURI...

CITY           SKY/WX    TMP DP  RH WIND       PRES   REMARKS
ST. JOSEPH     PTCLDY    37  28  70 S8        30.13F WCI  31
MOSBY          CLEAR     43  30  61 S5        30.17S
WARRENSBURG    CLEAR     41  30  65 SW6       30.19S
WHITEMAN AFB   CLEAR     36  26  68 SW8       30.18S WCI  29
CLINTON          N/A     43  30  61 SW3       30.21S
SEDALIA        CLEAR     43  27  53 SW5       30.20F
WARSAW         NOT AVBL
CHILLICOTHE      N/A     43  29  57 SW5       30.16F
KIRKSVILLE     CLEAR     39  29  67 SW5       30.14F

$$

MOZ041-047>049-056>058-063>065-088>090-097-070200-
...EASTERN AND SOUTHERN MISSOURI...

CITY           SKY/WX    TMP DP  RH WIND       PRES   REMARKS
ST. LOUIS INTL PTCLDY    48  26  42 SW5       30.20R
SPIRIT OF STL  CLEAR     43  27  53 CALM      30.19S
COLUMBIA       CLEAR     44  27  51 W8        30.18F
JEFFERSON CITY CLEAR     47  27  45 SW6       30.20S
ROLLA          CLEAR     41  26  55 SW7       30.19R
OSAGE BEACH    CLEAR     48  27  43 SW5       30.21F
SPRINGFIELD    CLEAR     40  25  55 SW5       30.22S
BRANSON        CLEAR     45  23  42 CALM      30.25S
JOPLIN         CLEAR     42  29  59 SW6       30.24F
WEST PLAINS    CLEAR     40  15  36 S5        30.25R

$$

IAZ060-094-KSZ022-034>040-054-083-096-NEZ052-066-093-070200-
...KANSAS...SOUTHEAST NEBRASKA AND IOWA...

CITY           SKY/WX    TMP DP  RH WIND       PRES   REMARKS
TOPEKA         CLOUDY    43  27  53 S5        30.15F
MANHATTAN      CLEAR     38  27  64 SW9       30.12F WCI  31
EMPORIA        CLOUDY    35  25  66 S10       30.18F WCI  27
CHANUTE        CLEAR     39  26  59 SW8       30.22F WCI  33
WICHITA        PTCLDY    38  26  62 S10       30.20S WCI  31
OMAHA          MOCLDY    40  28  62 S12       30.01F WCI  33
LINCOLN        PTCLDY    37  26  64 SW17      30.02F WCI  27
FALLS CITY     CLOUDY    42  27  55 S12       30.08F
LAMONI         CLOUDY    37  29  72 S10       30.07F WCI  30
DES MOINES     CLOUDY    35  30  82 S10       30.04F WCI  27

$$





USA.gov is the U.S. government's official web portal to all federal, state and local government web resources and services.